Weather Roundup
Issued by NWS

Home | Current Version | Previous Version | Text Only | Print | Product List | Glossary On
Versions: 1 2 3 4 5 6 7 8 9 10 11 12 13 14 15 16 17 18 19 20 21 22 23 24 25 26 27 28 29 30 31 32 33 34 35 36 37 38 39 40 41 42 43 44 45 46 47 48 49 50
975
NZUS93 KARX 231659
HRRWXR

CURRENT HOURLY OBSERVATIONS ACROSS
MUCH OF THE UPPER MISSISSIPPI VALLEY
NATIONAL WEATHER SERVICE LA CROSSE WI
1200 PM CDT SUN JUL 23 2017


...SOUTHEAST MINNESOTA...


CITY           SKY/WX    TMP DP  RH WIND       PRES   REMARKS
ROCHESTER      PTSUNNY   73  61  65 NW17      29.92R
ROCHESTER/MAYO PTSUNNY   74  57  55 NW12G25   29.92R
WINONA         SUNNY     77  61  57 N13G18    29.88R
AUSTIN         SUNNY     73  57  56 NW14G22   29.93R
ALBERT LEA     MOSUNNY   73  61  64 NW9       29.94S
DODGE CENTER   MOSUNNY   73  59  60 NW14      29.93R
PRESTON        SUNNY     74  60  61 NW15      29.91R
OWATONNA       PTSUNNY   73  61  64 NW14      29.94R
FARIBAULT      PTSUNNY   72  59  64 NW8G17    29.94R
$$

...ELSEWHERE IN MINNESOTA...


CITY           SKY/WX    TMP DP  RH WIND       PRES   REMARKS
MINNEAPOLIS    CLOUDY    72  58  61 N10       29.93R
INTNL FALLS    SUNNY     73  54  51 E6        29.99S
DULUTH         CLOUDY    63  57  81 NE7       29.97R
RED WING       CLOUDY    73  57  56 N6        29.90R
REDWOOD FALLS  CLOUDY    71  58  63 NW10      29.98R
MANKATO        PTSUNNY   73  60  63 NW16      29.95R
WORTHINGTON    MOSUNNY   73  58  59 NW14      30.02R
FAIRMONT       MOSUNNY   74  60  61 NW17G23   29.97S
$$

...SOUTHWEST WISCONSIN...


CITY           SKY/WX    TMP DP  RH WIND       PRES   REMARKS
LA CROSSE      MOSUNNY   81  64  56 NW14      29.85R
PRAIRIE DU CHI MOSUNNY   82  66  58 W6        29.82S
BOSCOBEL       PTSUNNY   84  65  52 NW6       29.83R
LONE ROCK      NOT AVBL
PLATTEVILLE    MOSUNNY   81  74  81 W9        29.84F
FORT MC COY    SUNNY     77  60  56 NW9       29.85S
MAUSTON-NEW LI PTSUNNY   78  64  63 NW6       29.83S
VIROQUA        CLOUDY    77  61  56 NW8       29.87R
WIS DELLS      PTSUNNY   77  61  58 NW3       29.84S
$$

...ELSEWHERE IN WISCONSIN...


CITY           SKY/WX    TMP DP  RH WIND       PRES   REMARKS
MILWAUKEE      CLOUDY    85  63  47 NW8       29.79F
MADISON        PTSUNNY   79  67  66 N9        29.82S
GREEN BAY      CLOUDY    77  69  76 N9        29.80S
EAU CLAIRE     NOT AVBL
BLACK RVR FLS  FAIR      79  60  51 NW9       29.85S
MEDFORD        MOSUNNY   72  60  65 N13       29.87R
WAUSAU         SUNNY     78  57  48 NW9       29.83R
WIS RAPIDS     SUNNY     81  59  47 NW16      29.85R
MARSHFIELD     MOSUNNY   77  57  50 NW13G21   29.85R
RICE LAKE      CLOUDY    64  57  78 NW5       29.94R
$$

...NORTHEAST IOWA...


CITY           SKY/WX    TMP DP  RH WIND       PRES   REMARKS
WATERLOO       SUNNY     81  65  58 NW14G25   29.87S
DUBUQUE        SUNNY     83  71  67 W16       29.84F
DECORAH        SUNNY     79  61  53 NW13      29.87R
MASON CITY     SUNNY     76  60  57 NW16      29.95S
CHARLES CITY   SUNNY     77  61  57 NW15G22   29.92R
OELWEIN          N/A    N/A N/A N/A MISG        N/A
$$

...ELSEWHERE IN IOWA...


CITY           SKY/WX    TMP DP  RH WIND       PRES   REMARKS
DES MOINES     MOSUNNY   87  59  38 NW14      29.91S
IOWA CITY      SUNNY     87  71  58 W12       29.87S HX  93
FORT DODGE     SUNNY     79  63  57 NW8       29.97R
MARSHALLTOWN   SUNNY     83  65  54 NW17      29.90R
CEDAR RAPIDS   SUNNY     85  68  56 W17G25    29.85S
$$

...NORTHERN ILLINOIS...


CITY           SKY/WX    TMP DP  RH WIND       PRES   REMARKS
CHICAGO-OHARE  MOSUNNY   86  64  47 W13G18    29.80S
CHICAGO-MIDWAY MOSUNNY   88  66  48 NW12      29.80R HX  90
MOLINE         SUNNY     88  72  58 W10       29.84F HX  94
ROCKFORD       MOSUNNY   86  69  56 W9        29.84S HX  90
PEORIA         MOSUNNY   87  74  64 NW9       29.86S HX  95
$$

NOTE: "FAIR" INDICATES FEW OR NO CLOUDS BELOW 12,000 FEET WITH NO
SIGNIFICANT WEATHER AND/OR OBSTRUCTIONS TO VISIBILITY. WIND
SPEEDS ARE IN MILES-PER-HOUR.




USA.gov is the U.S. government's official web portal to all federal, state and local government web resources and services.